• Join FlightAware (Why Join?)
  • Login
  • US Flag GB Flag 
16:20 EDT


 

Airport Tracker/Info


-or-


 

Live Flight TrackerFlight Track Log ✈ ASQ5678 ✈ 24-Sep-2013 ✈ KEWR - KCVG

Flight Track Log - Related Links

Times and Time Zones

All times are in EDT time to prevent confusion due to time zone crossing. See the ASQ5678 flight status page for this flight to view local times or setup timezone preferences in your user account.

Time Position Orientation Groundspeed Altitude Reporting Facility
EDT Latitude Longitude Course Direction KTS MPH feet Rate Location/Type
17:33 40.7167 -74.1333 333° Northwest 192 221 2,000  Level New York TRACON
17:34 40.7667 -74.1667 333° Northwest 256 295 5,200 3,300 Climbing New York TRACON
17:35 40.7667 -74.2500 270° West 280 322 8,700 3,300 Climbing New York TRACON
17:36 40.7500 -74.3500 258° West 281 323 11,900 1,620 Climbing New York TRACON
17:37 40.8000 -74.4167 315° West 279 321 12,000 1,260 Climbing New York TRACON
17:38 40.8833 -74.4333 351° North 280 322 14,500 2,400 Climbing New York TRACON
17:39 40.9261 -74.4842 318° Northwest 293 337 16,400 1,380 Climbing New York Center
17:40 40.8911 -74.6031 249° West 293 337 17,100 240 Climbing New York Center
17:41 40.8436 -74.7156 241° Southwest 353 406 17,000 600 Descending New York Center
17:42 40.7828 -74.8544 240° Southwest 397 457 18,400 1,320 Climbing New York Center
17:43 40.7308 -74.9692 239° Southwest 406 467 19,700 1,380 Climbing New York Center
17:44 40.6761 -75.0944 240° Southwest 406 467 21,200 1,500 Climbing New York Center
17:45 40.6217 -75.2194 240° Southwest 406 467 22,700 1,380 Climbing New York Center
17:46 40.5625 -75.3467 239° Southwest 411 473 24,000 840 Climbing New York Center
17:47 40.5011 -75.4764 238° Southwest 418 481 24,500 1,080 Climbing New York Center
17:48 40.4392 -75.6139 239° Southwest 425 489 26,200 1,620 Climbing New York Center
17:49 40.3819 -75.7408 239° Southwest 425 489 27,900 1,320 Climbing New York Center
17:50 40.3200 -75.8725 238° Southwest 425 489 28,900 1,620 Climbing New York Center
17:51 40.2514 -76.0089 237° Southwest 425 489 31,200 2,220 Climbing New York Center
17:52 40.1936 -76.1350 239° Southwest 413 475 33,400 2,040 Climbing New York Center
17:53 40.1492 -76.2403 241° Southwest 397 457 35,300 1,260 Climbing New York Center
17:54 40.0850 -76.3681 237° Southwest 388 447 36,000 300 Climbing New York Center
17:55 40.0244 -76.4961 238° Southwest 393 452 36,000  Level New York Center
17:57 39.9378 -76.6847 239° Southwest 423 487 36,000  Level Washington Center
17:58 39.8719 -76.8242 238° Southwest 436 502 36,000  Level Washington Center
17:59 39.8081 -76.9608 239° Southwest 447 514 36,000  Level Washington Center
18:00 39.7461 -77.0947 239° Southwest 447 514 36,000  Level Washington Center
18:01 39.6839 -77.2228 238° Southwest 447 514 36,000  Level Washington Center
18:02 39.6217 -77.3561 239° Southwest 442 509 36,000  Level Washington Center
18:03 39.5592 -77.4892 239° Southwest 442 509 36,000  Level Washington Center
18:04 39.4967 -77.6219 239° Southwest 442 509 36,000  Level Washington Center
18:05 39.4339 -77.7519 238° Southwest 437 503 36,000  Level Washington Center
18:06 39.3753 -77.8817 240° Southwest 437 503 36,000  Level Washington Center
18:07 39.3183 -78.0167 241° Southwest 437 503 36,000  Level Washington Center
18:08 39.2656 -78.1517 243° Southwest 426 490 36,000  Level Washington Center
18:09 39.2128 -78.2839 243° Southwest 426 490 36,000  Level Washington Center
18:10 39.1575 -78.4208 243° Southwest 426 490 36,000  Level Washington Center
18:11 39.1042 -78.5553 243° Southwest 426 490 36,000  Level Washington Center
18:12 39.0486 -78.6867 241° Southwest 421 484 36,000  Level Washington Center
18:13 38.9950 -78.8233 243° Southwest 421 484 36,000  Level Washington Center
18:14 38.9436 -78.9492 242° Southwest 421 484 36,000  Level Washington Center
18:15 38.8900 -79.0803 242° Southwest 416 479 36,000  Level Washington Center
18:16 38.8422 -79.2086 244° Southwest 416 479 36,000  Level Washington Center
18:17 38.8358 -79.3494 267° West 395 455 36,000  Level Washington Center
18:18 38.8336 -79.4878 269° West 395 455 36,000  Level Washington Center
18:19 38.8331 -79.6344 270° West 395 455 36,000 -180 Level Washington Center
18:20 38.8306 -79.7675 269° West 400 460 35,700 -780 Descending Washington Center
18:21 38.8294 -79.9167 269° West 387 445 34,500 -900 Descending Washington Center
18:22 38.8242 -80.0603 267° West 387 445 34,000 -780 Descending Washington Center
18:23 38.8169 -80.2167 267° West 397 457 32,900 -960 Descending Indianapolis Center
18:24 38.8136 -80.3667 268° West 421 484 32,000 -480 Descending Indianapolis Center
18:25 38.8083 -80.5197 268° West 428 493 32,000  Level Indianapolis Center
18:26 38.8039 -80.6719 268° West 427 491 32,000 -180 Level Indianapolis Center
18:27 38.7997 -80.8242 268° West 428 493 31,700 -1,020 Descending Indianapolis Center
18:28 38.7936 -81.0050 268° West 426 490 29,900 -1,680 Descending Indianapolis Center
18:29 38.7725 -81.1614 260° West 443 510 28,300 -960 Descending Indianapolis Center
18:30 38.7464 -81.3164 258° West 445 512 28,000 -180 Descending Indianapolis Center
18:31 38.7189 -81.4789 258° West 438 504 28,000  Level Indianapolis Center
18:32 38.6931 -81.6353 258° West 445 512 28,000 -120 Level Indianapolis Center
18:33 38.6658 -81.7953 258° West 445 512 27,800 -1,080 Descending Indianapolis Center
18:34 38.6397 -81.9469 258° West 441 507 25,800 -1,800 Descending Indianapolis Center
18:35 38.6139 -82.0936 257° West 424 488 24,100 -900 Descending Indianapolis Center
18:36 38.5883 -82.2378 257° West 419 482 24,000 -60 Descending Indianapolis Center
18:37 38.5628 -82.3808 257° West 414 476 24,000  Level Indianapolis Center
18:38 38.5342 -82.5422 257° West 413 475 24,000 -300 Level Indianapolis Center
18:39 38.5092 -82.6875 258° West 417 480 23,400 -1,140 Descending Indianapolis Center
18:40 38.4786 -82.8536 257° West 413 475 21,700 -1,260 Descending Indianapolis Center
18:41 38.4533 -82.9911 257° West 403 464 20,800 -1,260 Descending Indianapolis Center
18:42 38.4481 -83.1289 267° West 397 457 19,100 -1,800 Descending Indianapolis Center
18:44 38.4781 -83.2631 286° West 396 456 17,100 -1,740 Descending Indianapolis Center
18:45 38.5050 -83.3947 285° West 386 444 15,500 -1,560 Descending Indianapolis Center
18:46 38.5322 -83.5253 285° West 381 438 13,900 -1,620 Descending Indianapolis Center
18:47 38.5628 -83.6728 285° West 371 427 12,200 -1,560 Descending Indianapolis Center
18:48 38.5881 -83.7967 285° West 362 417 10,700 -1,080 Descending Indianapolis Center
18:49 38.6142 -83.9183 285° West 356 410 10,000 -360 Descending Indianapolis Center
18:50 38.6733 -84.0342 303° West 351 404 10,000  Level Indianapolis Center
18:51 38.7292 -84.1436 303° West 362 417 10,000  Level Indianapolis Center
18:52 38.7842 -84.2508 303° West 363 418 10,000  Level Indianapolis Center
18:53 38.8394 -84.3581 304° West 361 415 10,000  Level Indianapolis Center
18:54 38.8931 -84.4611 304° West 348 400 10,000 -540 Level Indianapolis Center
18:55 38.9442 -84.5314 313° West 289 333 9,000 -960 Descending Indianapolis Center
18:56 39.0142 -84.5403 354° North 263 303 8,100 -1,320 Descending Indianapolis Center
18:57 39.0947 -84.5403 360° North 245 282 6,300 -1,500 Descending Indianapolis Center
18:58 39.1600 -84.5456 356° North 242 278 5,000 -1,200 Descending Indianapolis Center
18:59 39.1611 -84.6128 271° West 236 272 3,900 -1,380 Descending Indianapolis Center
19:00 39.1167 -84.6667 223° Southwest 154 177 2,000 -1,680 Descending Cincinnati TRACON